Starlink 2017

operational
NORAD ID: 47351 Int'l Des: 2021-005 Owner: SPXS Country: US Constellation: starlink
LEOCIRCULARSTARLINK_TYPE

Über Starlink 2017

Beschreibung wird geladen...

Live-Position

3D-Globus wird geladen...

Nächste Überflüge

Höhenverlauf

Altitude vs Time

uPlot chart will show altitude changes over time

Zweizeiliger Elementsatz

1 47351U 21005C 25350.31562026 -.00000997 00000-0 -48060-4 0 9997
2 47351 53.0562 35.8913 0001479 111.1940 248.9207 15.06401434271033
Epoch: 16. Dez. 2025 • Age: 13 hours

Aktueller Status

Höhe 549.2 km
Geschwindigkeit 7.59 km/s
Subsatellitenpunkt 36.88°N, 140.1°E
Startdatum 20. Jan. 2021
Alter 4.9 years
Typ internet

Technische Details

Klassifizierung Payload
Masse 260.00 kg
Trockenmasse 248.00 kg
Gesamtmasse 260.00 kg
Länge 0.20 m
Durchmesser 2.80 m
Spannweite 9.00 m
Form Box + pan
Hersteller SPXS
Bus-Typ Starlink
Phasenstatus In Orbit
Besitzer/Staat SPXS/US

Große Konstellationen

Loading constellations...